Vitebsk, Belarus

8:29 PM +03 on February 27, 2017 (GMT +0300)
Vitebsk

Weather History for UMII - December, 2012

Change the Weather History Date:

Wednesday, December 12, 2012

  Actual Average Record
Temperature  
Mean Temperature 25 °F -  
Max Temperature 22 °F 26 °F - ()
Min Temperature 19 °F 15 °F - ()
Degree Days  
Heating Degree Days 40    
Moisture  
Dew Point 19 °F    
Average Humidity 86    
Maximum Humidity 93    
Minimum Humidity 80    
Precipitation  
Precipitation 0.04 in 0.06 in - ()
Sea Level Pressure  
Sea Level Pressure 30.10 in    
Wind  
Wind Speed 7 mph ()    
Max Wind Speed 13 mph    
Max Gust Speed 20 mph    
Visibility 3.6 miles    
Events Snow    
T = Trace of Precipitation, MM = Missing Value Source: Averaged Metar Reports

Daily Weather History Graph

Daily Weather History Graph

Search for Another Location

Airport or City:

Trip Planner

Search our weather history database for the weather conditions in past years. The results will help you decide how hot, cold, wet, or windy it might be!

Date:

Astronomy

Dec. 12, 2012 Rise Set
Actual Time 9:16 AM +03 4:29 PM +03
Civil Twilight 8:30 AM +03 5:15 PM +03
Nautical Twilight 7:43 AM +03 6:02 PM +03
Astronomical Twilight 6:58 AM +03 6:47 PM +03
Moon 7:52 AM +03 (12/12) 3:50 PM +03 (12/12)
Length of Visible Light 8h 44m
Length of Day
7h 13m
Waning Crescent, 1% of the Moon is Illuminated
Dec 12
Waning Crescent
Dec 13
New
Dec 20
First Quarter
Dec 28
Full
Jan 5
Last Quarter

Hourly Weather History & Observations

Time (+03) Temp. Windchill Dew Point Humidity Pressure Visibility Wind Dir Wind Speed Gust Speed Precip Events Conditions
12:00 AM 31 °F - 28 °F 82% 30.12 in 6 mi SE 2.2 mph - -   Overcast
3:00 AM 30 °F - 27 °F 85% 30.11 in 4 mi SSE 4.5 mph - - Snow Light Snow
6:00 AM 25 °F - 22 °F 85% 30.12 in 4 mi SE 4.5 mph - - Snow Light Snow
8:00 AM 21.2 °F 9.7 °F 19.4 °F 93% 30.06 in - ESE 11.2 mph 17.9 mph N/A   Light Freezing Drizzle
8:37 AM 21.2 °F 9.7 °F 19.4 °F 93% 30.06 in 1.8 mi ESE 11.2 mph 17.9 mph N/A Snow Light Snow
9:00 AM 21 °F - 19 °F 90% 30.15 in 2 mi SE 2.2 mph - - Snow Light Snow
9:00 AM 19.4 °F 7.4 °F 17.6 °F 93% 30.06 in 1.8 mi ESE 11.2 mph 17.9 mph N/A Snow Light Snow
9:37 AM 19.4 °F 7.4 °F 17.6 °F 93% 30.06 in - ESE 11.2 mph 17.9 mph N/A Snow Light Snow
10:00 AM 21.2 °F 8.5 °F 17.6 °F 86% 30.09 in - ESE 13.4 mph 20.1 mph N/A Snow Light Snow
10:15 AM 21.2 °F 8.5 °F 17.6 °F 86% 30.09 in 3.7 mi ESE 13.4 mph 20.1 mph N/A Snow Light Snow
11:00 AM 21.2 °F 8.5 °F 17.6 °F 86% 30.09 in - ESE 13.4 mph 20.1 mph N/A   Overcast
11:12 AM 21.2 °F 9.7 °F 17.6 °F 86% 30.09 in - ESE 11.2 mph 17.9 mph N/A Snow Light Snow Showers
12:00 PM 22 °F - 18 °F 80% 30.18 in 5 mi ESE 2.2 mph - - Snow Light Snow
12:00 PM 21.2 °F 9.7 °F 17.6 °F 86% 30.09 in - ESE 11.2 mph 17.9 mph N/A Snow Light Snow Showers
12:23 PM 21.2 °F 8.5 °F 17.6 °F 86% 30.09 in - ESE 13.4 mph 20.1 mph N/A   Overcast
1:00 PM 21.2 °F 9.7 °F 17.6 °F 86% 30.09 in - ESE 11.2 mph 17.9 mph N/A   Mostly Cloudy
2:00 PM 21.2 °F 9.7 °F 17.6 °F 86% 30.12 in 3.7 mi ESE 11.2 mph 17.9 mph N/A   Mostly Cloudy
3:00 PM 22 °F - 18 °F 80% 30.19 in 6 mi East 2.2 mph - - Snow Light Snow
3:00 PM 21.2 °F 9.7 °F 17.6 °F 86% 30.12 in 3.7 mi ESE 11.2 mph 17.9 mph N/A   Mostly Cloudy
4:00 PM 21.2 °F 11.0 °F 17.6 °F 86% 30.09 in 3.7 mi East 8.9 mph 15.7 mph N/A   Mostly Cloudy
9:00 PM 21 °F - 17 °F 80% 30.10 in 2 mi NE 4.5 mph - - Snow Snow